Location: Narrabri
(30.3170°S, 149.7830°E)
Time: 23:16:53
(UTC+10:00)

Hubble Space Telescope - Visible Passes

Search period start: 24 April 2017 00:00
Search period end: 04 May 2017 00:00
Orbit: 538 x 542 km, 28.5° (Epoch: 22 April)

Date Brightness Start Highest point End Pass type
(mag) Time Alt. Az. Time Alt. Az. Time Alt. Az.
24 Apr 3.6 03:51:17 17° E 03:51:17 17° E 03:52:19 10° E visible
24 Apr 1.1 05:26:40 21° W 05:29:19 58° N 05:33:24 10° ENE visible
25 Apr 3.9 03:41:54 12° E 03:41:54 12° E 03:42:18 10° E visible
25 Apr 1.2 05:17:16 27° WNW 05:19:16 52° N 05:23:19 10° ENE visible
26 Apr 1.4 05:07:54 33° WNW 05:09:13 45° NNW 05:13:12 10° ENE visible
27 Apr 1.5 04:58:32 36° NW 04:59:09 38° NNW 05:03:02 10° NE visible
28 Apr 1.8 04:49:13 32° NNW 04:49:13 32° NNW 04:52:48 10° NE visible
29 Apr 2.4 04:39:55 24° N 04:39:55 24° N 04:42:30 10° NE visible
30 Apr 3.0 04:30:39 17° NNE 04:30:39 17° NNE 04:32:05 10° NNE visible
01 May 3.6 04:21:24 11° NNE 04:21:24 11° NNE 04:21:32 10° NNE visible
